Hlavní strana
METAR-TAF:

METAR-TAF

Letiště :

Waycross, Georgie, Spojené státy americké

zeměpisná šířka: 31-15N, zeměpisná délka: 082-24W, výška: 46 m

Aktuální stav počasí

Zpráva byla vytvořena před 19 minutami, v 07:35 UTC
Východní vítr 5 kt
Teplota 11°C
Vlhkost vzduchu 82%
Tlak 1024 hPa
Viditelnost: 16.1 km
Jasno

METAR: KAYS 080735Z AUTO 08005KT 10SM CLR 11/08 A3025 RMK AO2 T01070082 TSNO

Čas: 02:54 (07:54 UTC)


TAF: chybějící

Stav a předpovědi počasí z více než 4 000 letišť (zprávy METAR a TAF).

Červené a žluté tečky na mapě představují dostupné meteorologické stanice.

Když kurzor umístíte na tečku, zobrazí se název stanice.

Pak kliknutím zobrazíte stav a předpověď počasí.

Chcete-li změnit mapu, kliknutím na zelené tlačítko se znaménkem +mapu přiblížíte, kliknutím na zelené tlačítko se znaménkem – mapu oddálíte a kliknutím na zelené šipky přejdete na sousední mapy.


METAR-TAF: